カタログに戻る

METEOR 2-5 DEB

LostPO
NORAD 40213·DEBRIS·🇷🇺 Russia

打ち上げ Oct 31, 1979 から Plesetsk Cosmodrome

Loading…

次のパス (今後24時間)

TLE

古いSource: Space-Track

元期: Aug 28, 2022, 07:08 UTC

1 40213U 79095CL  22240.29769771  .00002631  00000-0  10930-2 0  9995
2 40213  81.2066  69.5588 0008489  29.5968  88.6849 14.26213626577481

AllMySatでMETEOR 2-5 DEBをリアルタイム追跡

Download on the App Store